QPF
0.00 0.00 0.02 0.03 0.02 0.02 0.02 0.02 0.02 0.02 0.02 0.01 0.01 0.01 0.01 0.01 0.01 0.01 0.01 0.01 0.01 0.01 0.02 0.01 0.01 0.01 0.01 0.01 0.01 0.01 0.01 0.01 0.01 0.01 0.01 0.01 0.01 0.01 0.01 0.01 0.01 0.01 0.02
0.00 0.00 0.02 0.03 0.02 0.02 0.02 0.02 0.03 0.03 0.02 0.02 0.01 0.02 0.02 0.01 0.01 0.01 0.01 0.01 0.02 0.02 0.02 0.02 0.01 0.02 0.01 0.01 0.01 0.00 0.01 0.01 0.00 0.00 0.00 0.00 0.01 0.01 0.01 0.00 0.01 0.01 0.02
0.00 0.00 0.01 0.03 0.02 0.02 0.01 0.02 0.02 0.03 0.02 0.02 0.02 0.02 0.02 0.02 0.01 0.01 0.02 0.02 0.02 0.02 0.02 0.02 0.02 0.02 0.01 0.01 0.01 0.01 0.01 0.00 0.00 0.00 0.00 0.00 0.00 0.01 0.01 0.01 0.02 0.02 0.02
0.00 0.00 0.01 0.03 0.02 0.02 0.01 0.02 0.01 0.02 0.02 0.02 0.02 0.02 0.01 0.03 0.03 0.01 0.01 0.02 0.02 0.02 0.01 0.02 0.02 0.01 0.01 0.01 0.01 0.01 0.01 0.01 0.00 0.00 0.00 0.00 0.00 0.01 0.01 0.01 0.01 0.01 0.02
0.01 0.01 0.01 0.03 0.03 0.02 0.02 0.01 0.01 0.02 0.02 0.02 0.02 0.02 0.01 0.03 0.05 0.03 0.02 0.02 0.02 0.02 0.01 0.02 0.01 0.01 0.01 0.01 0.01 0.01 0.01 0.00 0.00 0.00 0.00 0.00 0.00 0.01 0.01 0.01 0.01 0.01 0.02
0.01 0.01 0.01 0.02 0.03 0.03 0.02 0.02 0.02 0.02 0.02 0.02 0.02 0.02 0.02 0.02 0.03 0.03 0.03 0.03 0.03 0.02 0.01 0.01 0.01 0.01 0.01 0.01 0.01 0.01 0.01 0.00 0.00 0.00 0.00 0.00 0.00 0.01 0.01 0.01 0.01 0.01 0.02
0.02 0.02 0.02 0.03 0.04 0.03 0.02 0.02 0.02 0.03 0.03 0.03 0.02 0.02 0.03 0.03 0.03 0.03 0.02 0.02 0.03 0.02 0.02 0.02 0.01 0.01 0.00 0.00 0.01 0.01 0.01 0.00 0.00 0.00 0.00 0.00 0.01 0.01 0.01 0.01 0.01 0.02 0.03
0.01 0.03 0.03 0.05 0.04 0.04 0.03 0.03 0.03 0.03 0.03 0.03 0.04 0.04 0.04 0.04 0.06 0.04 0.02 0.02 0.02 0.02 0.02 0.02 0.01 0.01 0.00 0.00 0.00 0.00 0.00 0.00 0.00 0.00 0.00 0.00 0.01 0.01 0.01 0.01 0.01 0.02 0.03
0.01 0.02 0.03 0.05 0.05 0.06 0.05 0.04 0.02 0.02 0.02 0.03 0.03 0.04 0.04 0.05 0.07 0.05 0.03 0.02 0.02 0.02 0.02 0.02 0.02 0.01 0.00 0.00 0.00 0.00 0.00 0.00 0.00 0.00 0.00 0.00 0.01 0.01 0.01 0.01 0.02 0.02 0.02
0.01 0.02 0.03 0.05 0.04 0.06 0.06 0.04 0.03 0.02 0.02 0.03 0.02 0.02 0.02 0.04 0.06 0.06 0.03 0.02 0.01 0.01 0.02 0.02 0.02 0.01 0.00 0.00 0.00 0.00 0.00 0.01 0.01 0.00 0.00 0.01 0.02 0.02 0.02 0.02 0.02 0.03 0.02
0.01 0.01 0.02 0.04 0.04 0.05 0.05 0.05 0.02 0.02 0.03 0.03 0.02 0.01 0.02 0.03 0.06 0.06 0.04 0.03 0.02 0.01 0.01 0.02 0.02 0.02 0.01 0.00 0.00 0.00 0.00 0.00 0.01 0.01 0.00 0.01 0.02 0.02 0.02 0.02 0.02 0.04 0.04
0.01 0.01 0.02 0.03 0.04 0.05 0.05 0.04 0.02 0.02 0.02 0.02 0.02 0.01 0.02 0.03 0.05 0.06 0.05 0.04 0.03 0.02 0.01 0.02 0.02 0.02 0.01 0.00 0.00 0.00 0.00 0.00 0.01 0.01 0.01 0.01 0.02 0.03 0.03 0.03 0.02 0.03 0.04
0.01 0.01 0.01 0.03 0.04 0.05 0.05 0.05 0.03 0.02 0.02 0.02 0.01 0.01 0.02 0.03 0.07 0.09 0.07 0.06 0.05 0.03 0.02 0.01 0.02 0.01 0.01 0.00 0.00 0.00 0.00 0.00 0.01 0.01 0.01 0.01 0.02 0.03 0.04 0.04 0.03 0.02 0.03
0.01 0.02 0.03 0.04 0.05 0.05 0.06 0.06 0.05 0.04 0.03 0.02 0.01 0.01 0.02 0.03 0.08 0.11 0.08 0.05 0.05 0.04 0.02 0.01 0.01 0.01 0.01 0.00 0.00 0.00 0.00 0.00 0.00 0.01 0.02 0.02 0.02 0.04 0.04 0.05 0.04 0.03 0.03
0.01 0.02 0.04 0.05 0.07 0.07 0.07 0.07 0.05 0.05 0.04 0.03 0.02 0.02 0.02 0.03 0.08 0.13 0.10 0.06 0.06 0.04 0.03 0.02 0.01 0.01 0.01 0.00 0.00 0.00 0.01 0.01 0.00 0.00 0.01 0.01 0.02 0.04 0.04 0.04 0.05 0.05 0.04
0.01 0.02 0.05 0.07 0.08 0.10 0.09 0.10 0.05 0.05 0.05 0.05 0.02 0.02 0.03 0.04 0.11 0.18 0.12 0.09 0.07 0.05 0.04 0.03 0.03 0.02 0.01 0.01 0.00 0.00 0.01 0.01 0.01 0.00 0.00 0.00 0.01 0.02 0.03 0.04 0.05 0.05 0.06
0.01 0.01 0.04 0.09 0.09 0.10 0.12 0.13 0.08 0.06 0.05 0.05 0.03 0.02 0.03 0.05 0.13 0.23 0.15 0.12 0.09 0.07 0.06 0.04 0.03 0.03 0.02 0.01 0.01 0.01 0.01 0.01 0.01 0.01 0.00 0.01 0.01 0.02 0.02 0.03 0.03 0.04 0.05
0.02 0.01 0.02 0.04 0.08 0.10 0.12 0.14 0.12 0.09 0.07 0.06 0.04 0.02 0.03 0.05 0.15 0.26 0.19 0.16 0.13 0.10 0.07 0.05 0.03 0.03 0.04 0.03 0.02 0.01 0.01 0.01 0.01 0.00 0.01 0.01 0.01 0.01 0.01 0.02 0.02 0.03 0.04
0.04 0.02 0.01 0.02 0.06 0.10 0.11 0.13 0.14 0.12 0.10 0.07 0.04 0.02 0.03 0.06 0.13 0.25 0.21 0.18 0.18 0.15 0.10 0.06 0.05 0.05 0.05 0.05 0.04 0.02 0.01 0.01 0.01 0.01 0.01 0.01 0.00 0.00 0.00 0.01 0.01 0.02 0.03
0.05 0.05 0.03 0.03 0.07 0.10 0.10 0.11 0.13 0.14 0.12 0.09 0.06 0.03 0.05 0.08 0.12 0.20 0.21 0.18 0.18 0.17 0.13 0.09 0.08 0.08 0.08 0.07 0.05 0.04 0.02 0.01 0.01 0.01 0.02 0.01 0.01 0.00 0.00 0.01 0.01 0.02 0.02
0.05 0.05 0.04 0.03 0.05 0.07 0.08 0.08 0.08 0.10 0.10 0.09 0.07 0.04 0.07 0.12 0.12 0.18 0.21 0.18 0.16 0.15 0.11 0.10 0.09 0.08 0.08 0.08 0.07 0.05 0.04 0.02 0.01 0.02 0.02 0.03 0.02 0.01 0.01 0.01 0.01 0.02 0.02
0.05 0.05 0.05 0.05 0.05 0.06 0.07 0.07 0.07 0.06 0.08 0.07 0.06 0.05 0.09 0.11 0.14 0.18 0.20 0.18 0.15 0.14 0.09 0.07 0.09 0.09 0.08 0.06 0.06 0.06 0.05 0.04 0.02 0.02 0.03 0.03 0.03 0.03 0.02 0.02 0.02 0.03 0.02
0.07 0.06 0.05 0.06 0.06 0.06 0.07 0.08 0.08 0.07 0.07 0.08 0.07 0.06 0.07 0.09 0.13 0.17 0.18 0.16 0.14 0.13 0.09 0.06 0.07 0.09 0.09 0.08 0.05 0.05 0.05 0.04 0.03 0.03 0.03 0.03 0.03 0.04 0.03 0.02 0.02 0.03 0.03
0.11 0.09 0.07 0.06 0.07 0.06 0.07 0.08 0.09 0.09 0.07 0.05 0.06 0.06 0.05 0.07 0.11 0.13 0.16 0.17 0.13 0.11 0.09 0.06 0.06 0.07 0.09 0.08 0.07 0.06 0.05 0.04 0.04 0.03 0.03 0.03 0.03 0.03 0.03 0.04 0.04 0.03 0.02
0.09 0.12 0.11 0.09 0.08 0.07 0.08 0.09 0.10 0.09 0.08 0.06 0.07 0.07 0.06 0.07 0.09 0.11 0.12 0.14 0.12 0.10 0.08 0.06 0.05 0.06 0.08 0.09 0.07 0.05 0.05 0.03 0.03 0.03 0.03 0.03 0.03 0.03 0.03 0.03 0.04 0.04 0.04
0.05 0.08 0.10 0.09 0.08 0.07 0.08 0.09 0.09 0.09 0.08 0.07 0.06 0.06 0.07 0.06 0.06 0.07 0.08 0.10 0.11 0.10 0.08 0.06 0.05 0.05 0.06 0.08 0.08 0.05 0.04 0.03 0.03 0.02 0.02 0.03 0.03 0.03 0.03 0.02 0.02 0.02 0.02
MSLP
1012.45 1011.96 1011.64 1011.53 1011.61 1011.83 1012.13 1012.43 1012.68 1012.84 1012.93 1012.98 1013.05 1013.17 1013.38 1013.68 1014.03 1014.40 1014.74 1015.01 1015.21 1015.36 1015.47 1015.60 1015.77 1016.00 1016.29 1016.61 1016.93 1017.21 1017.43 1017.58 1017.66 1017.70 1017.73 1017.76 1017.81 1017.90 1018.01 1018.16 1018.31 1018.47 1018.63
1012.42 1011.98 1011.68 1011.58 1011.65 1011.88 1012.17 1012.48 1012.73 1012.91 1013.02 1013.10 1013.18 1013.32 1013.54 1013.84 1014.20 1014.57 1014.90 1015.18 1015.40 1015.55 1015.67 1015.80 1015.97 1016.19 1016.47 1016.77 1017.07 1017.35 1017.57 1017.72 1017.82 1017.88 1017.92 1017.96 1018.03 1018.12 1018.24 1018.39 1018.56 1018.73 1018.92
1012.30 1011.92 1011.66 1011.58 1011.67 1011.89 1012.19 1012.50 1012.77 1012.97 1013.10 1013.20 1013.30 1013.46 1013.68 1013.97 1014.31 1014.66 1014.99 1015.27 1015.48 1015.63 1015.76 1015.90 1016.07 1016.29 1016.56 1016.85 1017.15 1017.43 1017.67 1017.85 1017.98 1018.08 1018.15 1018.21 1018.29 1018.39 1018.50 1018.65 1018.81 1019.00 1019.21
1012.11 1011.81 1011.62 1011.58 1011.69 1011.93 1012.23 1012.54 1012.81 1013.02 1013.17 1013.27 1013.38 1013.53 1013.75 1014.02 1014.34 1014.67 1014.98 1015.24 1015.45 1015.61 1015.76 1015.91 1016.09 1016.31 1016.58 1016.89 1017.20 1017.49 1017.76 1017.98 1018.16 1018.30 1018.41 1018.51 1018.60 1018.69 1018.80 1018.93 1019.08 1019.26 1019.47
1011.90 1011.70 1011.59 1011.61 1011.76 1012.01 1012.31 1012.61 1012.87 1013.07 1013.21 1013.31 1013.41 1013.55 1013.74 1013.99 1014.28 1014.58 1014.87 1015.12 1015.33 1015.51 1015.68 1015.85 1016.06 1016.31 1016.60 1016.92 1017.25 1017.57 1017.87 1018.13 1018.36 1018.54 1018.70 1018.82 1018.92 1019.01 1019.11 1019.21 1019.34 1019.50 1019.69
1011.73 1011.63 1011.60 1011.69 1011.87 1012.14 1012.44 1012.72 1012.95 1013.12 1013.23 1013.31 1013.40 1013.51 1013.67 1013.89 1014.15 1014.42 1014.69 1014.94 1015.17 1015.37 1015.58 1015.80 1016.04 1016.33 1016.64 1016.98 1017.33 1017.68 1018.00 1018.30 1018.57 1018.79 1018.98 1019.12 1019.24 1019.32 1019.39 1019.47 1019.57 1019.70 1019.87
1011.61 1011.60 1011.66 1011.81 1012.04 1012.32 1012.60 1012.85 1013.05 1013.18 1013.25 1013.30 1013.35 1013.44 1013.57 1013.75 1013.98 1014.23 1014.49 1014.74 1014.99 1015.24 1015.49 1015.77 1016.07 1016.40 1016.75 1017.11 1017.47 1017.83 1018.17 1018.48 1018.76 1019.01 1019.21 1019.37 1019.49 1019.58 1019.64 1019.69 1019.76 1019.85 1019.99
1011.56 1011.63 1011.76 1011.97 1012.23 1012.51 1012.77 1012.99 1013.14 1013.22 1013.26 1013.28 1013.30 1013.36 1013.46 1013.62 1013.82 1014.05 1014.30 1014.56 1014.83 1015.12 1015.44 1015.77 1016.14 1016.52 1016.90 1017.29 1017.66 1018.01 1018.33 1018.64 1018.91 1019.16 1019.37 1019.54 1019.67 1019.75 1019.81 1019.85 1019.90 1019.97 1020.08
1011.56 1011.67 1011.86 1012.11 1012.38 1012.66 1012.90 1013.09 1013.20 1013.25 1013.26 1013.25 1013.26 1013.30 1013.39 1013.52 1013.69 1013.89 1014.13 1014.39 1014.69 1015.02 1015.39 1015.79 1016.22 1016.65 1017.08 1017.49 1017.85 1018.19 1018.49 1018.75 1019.00 1019.22 1019.43 1019.60 1019.74 1019.84 1019.91 1019.96 1020.00 1020.06 1020.14
1011.55 1011.69 1011.91 1012.17 1012.46 1012.73 1012.95 1013.11 1013.20 1013.23 1013.24 1013.23 1013.24 1013.28 1013.36 1013.46 1013.60 1013.77 1013.98 1014.23 1014.53 1014.88 1015.30 1015.76 1016.25 1016.75 1017.22 1017.65 1018.02 1018.33 1018.59 1018.82 1019.02 1019.22 1019.40 1019.57 1019.73 1019.85 1019.95 1020.02 1020.08 1020.14 1020.20
1011.49 1011.64 1011.86 1012.13 1012.41 1012.67 1012.87 1013.02 1013.11 1013.16 1013.18 1013.21 1013.24 1013.29 1013.37 1013.45 1013.55 1013.67 1013.83 1014.04 1014.32 1014.68 1015.12 1015.64 1016.19 1016.75 1017.27 1017.74 1018.12 1018.42 1018.66 1018.85 1019.01 1019.16 1019.32 1019.49 1019.66 1019.81 1019.95 1020.06 1020.15 1020.22 1020.29
1011.32 1011.47 1011.69 1011.96 1012.22 1012.47 1012.67 1012.82 1012.93 1013.01 1013.08 1013.16 1013.24 1013.32 1013.39 1013.45 1013.50 1013.56 1013.65 1013.79 1014.02 1014.36 1014.82 1015.36 1015.97 1016.60 1017.19 1017.71 1018.14 1018.46 1018.69 1018.86 1018.99 1019.11 1019.25 1019.40 1019.58 1019.76 1019.93 1020.09 1020.22 1020.32 1020.40
1011.04 1011.18 1011.40 1011.65 1011.90 1012.13 1012.33 1012.50 1012.65 1012.79 1012.92 1013.06 1013.20 1013.32 1013.40 1013.43 1013.43 1013.41 1013.41 1013.47 1013.63 1013.93 1014.37 1014.94 1015.60 1016.30 1016.98 1017.58 1018.08 1018.45 1018.71 1018.89 1019.01 1019.11 1019.22 1019.37 1019.54 1019.73 1019.93 1020.12 1020.29 1020.42 1020.52
1010.62 1010.77 1010.98 1011.23 1011.47 1011.70 1011.91 1012.10 1012.29 1012.49 1012.70 1012.91 1013.10 1013.26 1013.34 1013.36 1013.30 1013.20 1013.10 1013.07 1013.15 1013.39 1013.81 1014.39 1015.10 1015.88 1016.65 1017.36 1017.96 1018.43 1018.76 1018.97 1019.11 1019.21 1019.30 1019.42 1019.57 1019.75 1019.95 1020.16 1020.35 1020.51 1020.64
1010.10 1010.27 1010.50 1010.74 1010.99 1011.22 1011.44 1011.66 1011.89 1012.14 1012.40 1012.67 1012.92 1013.10 1013.19 1013.19 1013.08 1012.91 1012.73 1012.61 1012.62 1012.80 1013.19 1013.77 1014.52 1015.37 1016.25 1017.09 1017.82 1018.41 1018.84 1019.13 1019.31 1019.42 1019.51 1019.59 1019.70 1019.85 1020.02 1020.21 1020.41 1020.59 1020.74
1009.50 1009.73 1009.98 1010.25 1010.51 1010.76 1010.99 1011.22 1011.47 1011.74 1012.04 1012.34 1012.61 1012.81 1012.91 1012.89 1012.76 1012.54 1012.31 1012.13 1012.08 1012.21 1012.57 1013.15 1013.93 1014.85 1015.84 1016.80 1017.67 1018.40 1018.96 1019.36 1019.61 1019.76 1019.83 1019.89 1019.94 1020.03 1020.15 1020.29 1020.46 1020.64 1020.82
1008.89 1009.18 1009.49 1009.80 1010.09 1010.35 1010.58 1010.81 1011.05 1011.32 1011.61 1011.90 1012.16 1012.36 1012.46 1012.44 1012.31 1012.09 1011.85 1011.65 1011.58 1011.69 1012.03 1012.61 1013.41 1014.39 1015.45 1016.53 1017.53 1018.40 1019.11 1019.63 1019.97 1020.17 1020.25 1020.28 1020.28 1020.29 1020.33 1020.41 1020.54 1020.70 1020.88
1008.32 1008.68 1009.05 1009.42 1009.74 1010.02 1010.25 1010.46 1010.66 1010.87 1011.10 1011.34 1011.56 1011.74 1011.83 1011.83 1011.73 1011.56 1011.36 1011.20 1011.15 1011.27 1011.61 1012.20 1013.01 1014.00 1015.12 1016.28 1017.39 1018.39 1019.23 1019.88 1020.33 1020.59 1020.71 1020.72 1020.68 1020.62 1020.58 1020.59 1020.66 1020.79 1020.96
1007.82 1008.25 1008.69 1009.12 1009.48 1009.77 1009.99 1010.14 1010.27 1010.39 1010.52 1010.66 1010.81 1010.94 1011.03 1011.06 1011.03 1010.94 1010.83 1010.76 1010.78 1010.96 1011.32 1011.91 1012.71 1013.71 1014.85 1016.04 1017.23 1018.33 1019.29 1020.06 1020.62 1020.97 1021.14 1021.17 1021.11 1021.01 1020.90 1020.85 1020.86 1020.94 1021.10
1007.44 1007.92 1008.42 1008.90 1009.29 1009.58 1009.77 1009.85 1009.87 1009.86 1009.85 1009.86 1009.91 1009.98 1010.06 1010.13 1010.19 1010.23 1010.27 1010.33 1010.47 1010.73 1011.14 1011.73 1012.52 1013.49 1014.60 1015.80 1017.01 1018.18 1019.22 1020.10 1020.78 1021.23 1021.49 1021.57 1021.53 1021.42 1021.29 1021.18 1021.15 1021.19 1021.33
1007.19 1007.69 1008.23 1008.73 1009.15 1009.42 1009.55 1009.54 1009.43 1009.27 1009.09 1008.95 1008.87 1008.87 1008.93 1009.06 1009.23 1009.42 1009.64 1009.88 1010.17 1010.54 1011.01 1011.62 1012.38 1013.30 1014.36 1015.51 1016.72 1017.90 1019.00 1019.97 1020.76 1021.33 1021.69 1021.87 1021.89 1021.82 1021.70 1021.59 1021.53 1021.54 1021.65
1007.08 1007.56 1008.10 1008.61 1009.00 1009.24 1009.30 1009.18 1008.93 1008.60 1008.24 1007.94 1007.73 1007.65 1007.71 1007.89 1008.18 1008.53 1008.94 1009.37 1009.83 1010.33 1010.88 1011.51 1012.25 1013.10 1014.08 1015.17 1016.32 1017.49 1018.62 1019.65 1020.54 1021.23 1021.72 1022.02 1022.15 1022.16 1022.10 1022.02 1021.97 1021.97 1022.04
1007.13 1007.54 1008.03 1008.49 1008.85 1009.02 1008.99 1008.75 1008.35 1007.86 1007.34 1006.88 1006.55 1006.40 1006.45 1006.68 1007.07 1007.59 1008.18 1008.80 1009.43 1010.06 1010.69 1011.35 1012.06 1012.86 1013.75 1014.75 1015.83 1016.96 1018.09 1019.16 1020.13 1020.93 1021.55 1021.99 1022.26 1022.39 1022.43 1022.42 1022.40 1022.41 1022.47
1007.34 1007.64 1008.03 1008.40 1008.67 1008.75 1008.61 1008.26 1007.72 1007.08 1006.42 1005.83 1005.41 1005.20 1005.23 1005.51 1005.99 1006.64 1007.38 1008.17 1008.95 1009.70 1010.41 1011.10 1011.81 1012.55 1013.37 1014.29 1015.29 1016.36 1017.46 1018.54 1019.56 1020.45 1021.20 1021.77 1022.19 1022.46 1022.62 1022.71 1022.76 1022.80 1022.86
1007.70 1007.85 1008.10 1008.35 1008.49 1008.46 1008.21 1007.74 1007.09 1006.33 1005.56 1004.89 1004.39 1004.13 1004.16 1004.46 1005.01 1005.75 1006.61 1007.51 1008.41 1009.26 1010.04 1010.78 1011.49 1012.20 1012.97 1013.81 1014.73 1015.74 1016.79 1017.86 1018.90 1019.85 1020.68 1021.38 1021.93 1022.34 1022.63 1022.83 1022.97 1023.07 1023.15
1008.23 1008.21 1008.29 1008.38 1008.37 1008.20 1007.83 1007.25 1006.51 1005.68 1004.84 1004.12 1003.58 1003.30 1003.32 1003.64 1004.21 1005.00 1005.92 1006.89 1007.86 1008.78 1009.63 1010.40 1011.13 1011.84 1012.57 1013.37 1014.23 1015.17 1016.17 1017.20 1018.21 1019.18 1020.07 1020.84 1021.49 1022.02 1022.44 1022.75 1022.99 1023.17 1023.30
Thickness
5726 5728 5728 5727 5726 5726 5725 5725 5725 5725 5725 5725 5725 5725 5725 5725 5724 5724 5724 5724 5724 5723 5723 5723 5723 5722 5722 5721 5721 5721 5720 5720 5719 5719 5718 5718 5718 5717 5716 5716 5715 5715 5714
5727 5726 5725 5724 5723 5723 5722 5722 5722 5722 5722 5722 5722 5722 5722 5722 5722 5722 5722 5722 5721 5721 5721 5720 5720 5720 5719 5719 5718 5718 5717 5716 5716 5715 5715 5715 5714 5714 5713 5713 5712 5712 5711
5724 5723 5722 5721 5720 5719 5719 5719 5719 5719 5719 5719 5719 5719 5719 5719 5719 5719 5719 5719 5719 5718 5718 5718 5717 5717 5716 5715 5715 5714 5714 5713 5713 5712 5712 5712 5711 5711 5710 5710 5709 5709 5708
5720 5719 5718 5717 5717 5716 5715 5715 5715 5715 5715 5715 5715 5715 5716 5716 5715 5716 5716 5716 5715 5715 5715 5714 5714 5713 5713 5712 5712 5711 5710 5710 5709 5709 5709 5708 5708 5708 5707 5706 5706 5705 5704
5714 5714 5714 5713 5713 5712 5711 5711 5711 5711 5711 5712 5712 5712 5712 5712 5712 5712 5712 5712 5712 5711 5711 5711 5710 5710 5709 5708 5708 5707 5707 5706 5706 5705 5705 5705 5705 5704 5704 5703 5702 5702 5701
5709 5709 5708 5709 5708 5708 5707 5707 5707 5707 5707 5708 5708 5708 5708 5708 5708 5708 5708 5708 5708 5708 5707 5707 5706 5706 5705 5705 5704 5704 5703 5703 5702 5702 5701 5701 5701 5701 5700 5699 5698 5698 5697
5702 5702 5702 5703 5703 5703 5702 5702 5702 5702 5703 5703 5703 5704 5704 5704 5704 5704 5704 5704 5704 5704 5703 5703 5702 5702 5702 5701 5701 5700 5700 5699 5699 5698 5698 5697 5697 5697 5697 5696 5695 5694 5693
5695 5696 5696 5697 5697 5697 5697 5697 5697 5697 5698 5698 5699 5699 5699 5699 5699 5699 5700 5700 5700 5700 5699 5699 5698 5698 5698 5697 5697 5696 5696 5695 5695 5694 5694 5694 5693 5693 5693 5692 5691 5690 5689
5688 5689 5689 5690 5691 5691 5691 5691 5691 5692 5692 5693 5693 5694 5694 5694 5694 5695 5695 5696 5696 5695 5695 5694 5694 5694 5693 5693 5692 5692 5692 5691 5691 5690 5690 5689 5689 5689 5688 5688 5687 5686 5685
5679 5681 5682 5683 5684 5684 5685 5685 5685 5685 5686 5686 5687 5687 5688 5689 5689 5690 5690 5691 5691 5691 5690 5690 5689 5689 5689 5689 5688 5688 5687 5687 5687 5686 5685 5685 5685 5685 5684 5684 5683 5682 5681
5671 5672 5674 5676 5677 5677 5678 5678 5678 5678 5679 5679 5680 5681 5682 5683 5684 5684 5685 5686 5686 5686 5686 5685 5685 5684 5684 5684 5684 5684 5683 5682 5682 5682 5681 5681 5681 5680 5680 5679 5679 5678 5677
5663 5664 5666 5668 5669 5670 5670 5671 5671 5671 5671 5672 5673 5674 5675 5677 5678 5679 5680 5681 5681 5681 5681 5680 5680 5679 5679 5679 5678 5678 5678 5678 5677 5677 5677 5677 5677 5676 5676 5675 5674 5673 5673
5657 5657 5659 5660 5662 5662 5663 5664 5664 5664 5665 5666 5666 5667 5669 5670 5672 5673 5674 5674 5675 5675 5675 5675 5674 5674 5674 5674 5673 5673 5673 5673 5672 5672 5672 5672 5672 5672 5671 5670 5669 5668 5668
5650 5651 5652 5653 5654 5656 5656 5657 5657 5658 5658 5659 5660 5661 5662 5663 5665 5667 5668 5669 5669 5669 5669 5669 5669 5669 5668 5668 5668 5667 5667 5667 5667 5667 5667 5667 5667 5667 5666 5665 5665 5664 5663
5644 5645 5646 5647 5648 5649 5650 5651 5652 5652 5652 5653 5653 5654 5656 5657 5659 5660 5662 5663 5663 5663 5664 5664 5663 5663 5663 5662 5661 5661 5661 5661 5661 5661 5661 5661 5662 5661 5661 5660 5660 5658 5658
5640 5640 5641 5641 5642 5643 5644 5645 5646 5646 5646 5646 5647 5648 5649 5651 5652 5653 5654 5656 5657 5658 5658 5658 5658 5657 5656 5656 5655 5655 5654 5654 5654 5655 5655 5655 5655 5655 5655 5655 5654 5653 5652
5635 5635 5635 5636 5637 5638 5638 5639 5639 5640 5640 5640 5640 5641 5642 5644 5645 5647 5648 5649 5651 5652 5652 5652 5652 5651 5650 5649 5648 5647 5647 5647 5648 5648 5648 5648 5648 5648 5648 5648 5647 5647 5646
5629 5630 5630 5632 5631 5632 5632 5632 5632 5633 5633 5633 5633 5634 5635 5637 5639 5641 5642 5643 5645 5646 5646 5646 5645 5644 5642 5641 5640 5639 5639 5640 5640 5641 5641 5641 5641 5640 5641 5641 5640 5640 5639
5624 5624 5624 5626 5626 5626 5626 5626 5625 5626 5625 5626 5626 5627 5629 5631 5632 5634 5635 5637 5637 5639 5640 5640 5638 5637 5635 5633 5632 5631 5631 5632 5632 5633 5633 5633 5633 5633 5633 5633 5633 5632 5632
5618 5618 5619 5619 5620 5620 5619 5619 5618 5618 5619 5619 5620 5621 5623 5625 5626 5627 5628 5630 5630 5631 5632 5633 5631 5629 5627 5625 5625 5622 5622 5622 5623 5624 5625 5625 5625 5625 5625 5625 5625 5624 5624
5613 5612 5613 5613 5613 5613 5612 5612 5612 5612 5613 5613 5613 5614 5616 5618 5619 5619 5621 5622 5623 5623 5624 5626 5624 5621 5618 5617 5616 5614 5612 5613 5614 5615 5616 5617 5617 5616 5616 5616 5616 5616 5616
5609 5609 5607 5608 5608 5609 5609 5609 5608 5607 5606 5607 5608 5608 5610 5612 5612 5613 5614 5616 5616 5615 5616 5618 5618 5614 5611 5611 5610 5607 5603 5604 5605 5607 5607 5608 5608 5608 5608 5607 5607 5607 5607
5604 5605 5605 5603 5604 5604 5604 5602 5600 5598 5599 5599 5601 5602 5604 5606 5607 5608 5608 5609 5610 5609 5609 5611 5612 5611 5606 5603 5604 5603 5599 5598 5595 5596 5598 5599 5600 5600 5599 5599 5599 5598 5598
5600 5599 5600 5599 5599 5599 5599 5598 5597 5597 5596 5597 5597 5598 5598 5599 5599 5601 5602 5602 5603 5603 5603 5603 5604 5604 5603 5598 5596 5596 5596 5595 5591 5588 5588 5589 5590 5591 5590 5590 5590 5589 5589
5595 5594 5594 5593 5593 5593 5593 5594 5594 5593 5593 5592 5591 5592 5592 5593 5594 5594 5596 5595 5596 5596 5596 5597 5596 5596 5596 5594 5591 5589 5587 5585 5585 5583 5581 5580 5580 5580 5581 5581 5581 5580 5580
5588 5588 5587 5587 5587 5588 5588 5588 5589 5589 5587 5587 5587 5587 5587 5587 5588 5588 5589 5588 5590 5590 5589 5589 5589 5589 5588 5587 5584 5583 5582 5580 5577 5576 5573 5571 5571 5571 5571 5572 5571 5571 5570